This is the latest recevied weather packets stored in our database for station/object JA6CFI-13. If no packets are shown the sender has not sent any weather packets the latest 10 day(s).
| Time | Temp. | Humidity | Pressure | Rain* | Wind** | Luminosity | Snow |
|---|---|---|---|---|---|---|---|
| 1777311325 | 16.11° C | 89% | 1012.2 hPa | 0 mm | - | - | - |
| 1777310545 | 16.67° C | 89% | 1012.1 hPa | 0 mm | - | - | - |
| 1777309765 | 16.67° C | 90% | 1012.1 hPa | 0 mm | - | - | - |
| 1777308984 | 16.67° C | 89% | 1012 hPa | 0 mm | - | - | - |
| 1777308204 | 16.67° C | 89% | 1012 hPa | 0 mm | - | - | - |
| 1777308127 | 16.67° C | 89% | 1012 hPa | 0 mm | - | - | - |
| 1777307426 | 16.67° C | 88% | 1012.1 hPa | 0 mm | - | - | - |
| 1777306645 | 17.22° C | 88% | 1011.9 hPa | 0 mm | - | - | - |
| 1777305865 | 17.22° C | 87% | 1011.9 hPa | 0 mm | - | - | - |
| 1777305086 | 17.22° C | 87% | 1012.1 hPa | 0 mm | - | - | - |
| 1777304305 | 17.22° C | 87% | 1012.1 hPa | 0 mm | - | - | - |
| 1777303526 | 16.67° C | 88% | 1012.1 hPa | 0 mm | - | - | - |
| 1777302746 | 15.56° C | 88% | 1012.2 hPa | 0 mm | - | - | - |
| 1777302727 | 15.56° C | 88% | 1012.2 hPa | 0 mm | - | - | - |
| 1777301964 | 15.56° C | 87% | 1012.4 hPa | 0 mm | - | - | - |
| 1777301184 | 15.56° C | 86% | 1012.8 hPa | 0 mm | - | - | - |
| 1777300927 | 15.56° C | 86% | 1012.8 hPa | 0 mm | - | - | - |
| 1777300405 | 15.56° C | 86% | 1012.6 hPa | 0 mm | - | - | - |
| 1777299625 | 15.56° C | 85% | 1012.7 hPa | 0 mm | - | - | - |
| 1777298844 | 16.11° C | 84% | 1012.8 hPa | 0 mm | - | - | - |
| 1777298064 | 16.11° C | 83% | 1012.7 hPa | 0 mm | - | - | - |
| 1777297328 | 16.67° C | 82% | 1012.9 hPa | 0 mm | - | - | - |
| 1777297284 | 16.67° C | 81% | 1012.9 hPa | 0 mm | - | - | - |
| 1777296504 | 16.67° C | 80% | 1012.8 hPa | 0 mm | - | - | - |
| 1777295726 | 16.67° C | 81% | 1013 hPa | 0 mm | - | - | - |
* Rain latest hour (hover to see other rain measurements)
** Current wind speed in m/s (hover to see current wind gust speed)